| time (UTC) | temp F | wind direction | speed MPH | gust MPH | rain 1hr in | rain 24hr in | rain mn in | humidity % | barometer mb |
| 20260904172017 | 85 | 0.0 | 2.0 | 0.00 | 0.00 | 0.00 | 46 | 1009.2 | |
| 20260904171057 | 85 | 68 | 1.0 | 6.0 | 0.00 | 0.00 | 0.00 | 47 | 1009.2 |
| 20260904170017 | 85 | 113 | 1.0 | 6.0 | 0.00 | 0.00 | 0.00 | 46 | 1009.3 |
| 20260904165018 | 84 | 45 | 1.0 | 3.0 | 0.00 | 0.00 | 0.00 | 51 | 1009.2 |
| 20260904164017 | 84 | 45 | 1.0 | 7.0 | 0.00 | 0.00 | 0.00 | 50 | 1009.4 |
| 20260904163017 | 84 | 0.0 | 4.0 | 0.00 | 0.00 | 0.00 | 52 | 1009.3 | |
| 20260904162038 | 83 | 0.0 | 5.0 | 0.00 | 0.00 | 0.00 | 55 | 1009.3 | |
| 20260904161017 | 81 | 0.0 | 1.0 | 0.00 | 0.00 | 0.00 | 57 | 1009.5 | |
| 20260904160017 | 81 | 0.0 | 4.0 | 0.00 | 0.00 | 0.00 | 58 | 1009.8 | |
| 20260904155057 | 81 | 0.0 | 1.0 | 0.00 | 0.00 | 0.00 | 60 | 1009.7 | |
| 20260904154018 | 80 | 0.0 | 4.0 | 0.00 | 0.00 | 0.00 | 60 | 1009.9 | |
| 20260904153057 | 81 | 0.0 | 1.0 | 0.00 | 0.00 | 0.00 | 60 | 1010.0 | |
| 20260904152017 | 81 | 293 | 1.0 | 5.0 | 0.00 | 0.00 | 0.00 | 60 | 1010.1 |
| 20260904151017 | 81 | 0.0 | 2.0 | 0.00 | 0.00 | 0.00 | 60 | 1009.9 | |
| 20260904150017 | 81 | 0.0 | 4.0 | 0.00 | 0.00 | 0.00 | 61 | 1010.1 | |
| 20260904145037 | 80 | 0.0 | 3.0 | 0.00 | 0.00 | 0.00 | 65 | 1009.8 | |
| 20260904144017 | 79 | 270 | 1.0 | 6.0 | 0.00 | 0.00 | 0.00 | 66 | 1009.9 |
| 20260904143017 | 78 | 0.0 | 4.0 | 0.00 | 0.00 | 0.00 | 68 | 1010.0 | |
| 20260904142035 | 77 | 0.0 | 5.0 | 0.00 | 0.00 | 0.00 | 70 | 1010.1 | |
| 20260904141053 | 77 | 0.0 | 4.0 | 0.00 | 0.00 | 0.00 | 71 | 1010.0 | |
| 20260904140026 | 76 | 0.0 | 3.0 | 0.00 | 0.00 | 0.00 | 74 | 1010.0 | |
| 20260904135017 | 75 | 0.0 | 1.0 | 0.00 | 0.00 | 0.00 | 75 | 1010.1 | |
| 20260904134039 | 75 | 0.0 | 2.0 | 0.00 | 0.00 | 0.00 | 77 | 1010.1 | |
| 20260904133018 | 74 | 0.0 | 2.0 | 0.00 | 0.00 | 0.00 | 78 | 1010.1 | |
| 20260904132020 | 74 | 0.0 | 1.0 | 0.00 | 0.00 | 0.00 | 79 | 1010.1 | |
| 20260904131020 | 73 | 293 | 1.0 | 4.0 | 0.00 | 0.00 | 0.00 | 79 | 1010.2 |
| 20260904130023 | 73 | 315 | 1.0 | 4.0 | 0.00 | 0.00 | 0.00 | 80 | 1010.2 |
| 20260904125022 | 72 | 0.0 | 3.0 | 0.00 | 0.00 | 0.00 | 82 | 1010.2 | |
| 20260904124017 | 72 | 0.0 | 2.0 | 0.00 | 0.00 | 0.00 | 84 | 1010.2 | |
| 20260904123037 | 71 | 0.0 | 2.0 | 0.00 | 0.00 | 0.00 | 90 | 1010.2 | |
| 20260904122037 | 70 | 315 | 1.0 | 4.0 | 0.00 | 0.00 | 0.00 | 95 | 1010.1 |
| 20260904121018 | 69 | 0.0 | 2.0 | 0.00 | 0.00 | 0.00 | 98 | 1010.0 | |
| 20260904120020 | 68 | 0.0 | 1.0 | 0.00 | 0.00 | 0.00 | 98 | 1010.1 | |
| 20260904115019 | 67 | 0.0 | 0.0 | 0.00 | 0.00 | 0.00 | 98 | 1009.9 | |
| 20260904114019 | 67 | 0.0 | 0.0 | 0.00 | 0.00 | 0.00 | 98 | 1009.9 | |
| 20260904113016 | 67 | 0.0 | 0.0 | 0.00 | 0.00 | 0.00 | 98 | 1009.8 | |
| 20260904112017 | 67 | 0.0 | 0.0 | 0.00 | 0.00 | 0.00 | 98 | 1009.7 | |
| 20260904111057 | 66 | 0.0 | 0.0 | 0.00 | 0.00 | 0.00 | 98 | 1009.6 | |
| 20260904110017 | 66 | 0.0 | 0.0 | 0.00 | 0.00 | 0.00 | 98 | 1009.5 | |
| 20260904105016 | 66 | 0.0 | 0.0 | 0.00 | 0.00 | 0.00 | 98 | 1009.6 | |
| 20260904104016 | 67 | 0.0 | 0.0 | 0.00 | 0.00 | 0.00 | 98 | 1009.5 | |
| 20260904103016 | 67 | 0.0 | 0.0 | 0.00 | 0.00 | 0.00 | 98 | 1009.5 | |
| 20260904102024 | 67 | 0.0 | 0.0 | 0.00 | 0.00 | 0.00 | 97 | 1009.6 | |
| 20260904101016 | 67 | 0.0 | 0.0 | 0.00 | 0.00 | 0.00 | 97 | 1009.4 | |
| 20260904100039 | 68 | 0.0 | 0.0 | 0.00 | 0.00 | 0.00 | 97 | 1009.4 | |
| 20260904095017 | 68 | 0.0 | 0.0 | 0.00 | 0.00 | 0.00 | 97 | 1009.3 | |
| 20260904094036 | 68 | 0.0 | 0.0 | 0.00 | 0.00 | 0.00 | 98 | 1009.3 | |
| 20260904093058 | 69 | 0.0 | 0.0 | 0.00 | 0.00 | 0.00 | 98 | 1009.2 | |
| 20260904092019 | 69 | 0.0 | 0.0 | 0.00 | 0.00 | 0.00 | 97 | 1009.3 | |
| 20260904091521 | 69 | 0.0 | 0.0 | 0.00 | 0.00 | 0.00 | 97 | 1009.1 | |
| 20260904090538 | 69 | 0.0 | 0.0 | 0.00 | 0.00 | 0.00 | 97 | 1009.1 | |
| 20260904085516 | 69 | 0.0 | 0.0 | 0.00 | 0.00 | 0.00 | 97 | 1009.1 | |
| 20260904084520 | 69 | 0.0 | 0.0 | 0.00 | 0.00 | 0.00 | 97 | 1009.0 | |
| 20260904083538 | 69 | 0.0 | 0.0 | 0.00 | 0.00 | 0.00 | 98 | 1009.0 | |
| 20260904082516 | 69 | 0.0 | 0.0 | 0.00 | 0.00 | 0.00 | 97 | 1008.9 | |
| 20260904081516 | 69 | 0.0 | 0.0 | 0.00 | 0.00 | 0.00 | 97 | 1009.0 | |
| 20260904080518 | 69 | 0.0 | 0.0 | 0.00 | 0.00 | 0.00 | 97 | 1009.1 | |
| 20260904075537 | 69 | 0.0 | 0.0 | 0.00 | 0.00 | 0.00 | 97 | 1009.0 | |
| 20260904074516 | 69 | 0.0 | 0.0 | 0.00 | 0.00 | 0.00 | 97 | 1009.1 | |
| 20260904073523 | 69 | 0.0 | 0.0 | 0.00 | 0.00 | 0.00 | 97 | 1009.3 | |
| 20260904072516 | 69 | 0.0 | 0.0 | 0.00 | 0.00 | 0.00 | 97 | 1009.4 | |
| 20260904071517 | 69 | 0.0 | 0.0 | 0.00 | 0.00 | 0.00 | 97 | 1009.7 | |
| 20260904070517 | 69 | 0.0 | 0.0 | 0.00 | 0.00 | 0.00 | 97 | 1009.7 | |
| 20260904065538 | 69 | 0.0 | 0.0 | 0.00 | 0.00 | 0.00 | 97 | 1009.7 | |
| 20260904064518 | 69 | 0.0 | 0.0 | 0.00 | 0.00 | 0.00 | 97 | 1009.9 | |
| 20260904063536 | 69 | 0.0 | 0.0 | 0.00 | 0.00 | 0.00 | 97 | 1009.9 | |
| 20260904062517 | 69 | 0.0 | 0.0 | 0.00 | 0.00 | 0.00 | 97 | 1009.7 | |
| 20260904061517 | 69 | 0.0 | 0.0 | 0.00 | 0.01 | 0.00 | 97 | 1009.8 | |
| 20260904060516 | 69 | 0.0 | 0.0 | 0.00 | 0.02 | 0.00 | 97 | 1009.9 | |
| 20260904055536 | 69 | 0.0 | 0.0 | 0.00 | 0.03 | 0.00 | 97 | 1010.0 | |
| 20260904054544 | 69 | 0.0 | 0.0 | 0.00 | 0.05 | 0.00 | 97 | 1010.1 | |
| 20260904053540 | 69 | 0.0 | 0.0 | 0.00 | 0.05 | 0.00 | 97 | 1010.2 | |
| 20260904052541 | 69 | 0.0 | 0.0 | 0.00 | 0.05 | 0.00 | 97 | 1010.2 | |
| 20260904051527 | 69 | 0.0 | 0.0 | 0.00 | 0.05 | 0.00 | 97 | 1010.3 | |
| 20260904050541 | 70 | 0.0 | 0.0 | 0.00 | 0.05 | 0.00 | 96 | 1010.5 | |
| 20260904045518 | 70 | 0.0 | 0.0 | 0.00 | 0.05 | 0.00 | 96 | 1010.5 | |
| 20260904044524 | 70 | 0.0 | 0.0 | 0.00 | 0.05 | 0.00 | 96 | 1010.7 | |
| 20260904043525 | 70 | 0.0 | 0.0 | 0.00 | 0.05 | 0.00 | 96 | 1010.7 | |
| 20260904042520 | 70 | 0.0 | 0.0 | 0.00 | 0.05 | 0.00 | 96 | 1010.6 | |
| 20260904041529 | 70 | 0.0 | 0.0 | 0.00 | 0.05 | 0.00 | 96 | 1010.8 | |
| 20260904040516 | 71 | 0.0 | 0.0 | 0.00 | 0.05 | 0.00 | 96 | 1010.8 | |
| 20260904035516 | 71 | 0.0 | 0.0 | 0.00 | 0.05 | 0.05 | 96 | 1010.7 | |
| 20260904034517 | 71 | 0.0 | 0.0 | 0.00 | 0.05 | 0.05 | 96 | 1010.6 | |
| 20260904033516 | 71 | 0.0 | 0.0 | 0.00 | 0.05 | 0.05 | 96 | 1010.9 | |
| 20260904032516 | 72 | 0.0 | 0.0 | 0.00 | 0.05 | 0.05 | 96 | 1011.1 | |
| 20260904031516 | 72 | 0.0 | 0.0 | 0.00 | 0.05 | 0.05 | 96 | 1010.9 | |
| 20260904030556 | 72 | 0.0 | 0.0 | 0.00 | 0.05 | 0.05 | 96 | 1011.1 | |
| 20260904025516 | 72 | 0.0 | 0.0 | 0.00 | 0.05 | 0.05 | 95 | 1011.1 | |
| 20260904024517 | 72 | 0.0 | 0.0 | 0.00 | 0.05 | 0.05 | 95 | 1011.1 | |
| 20260904023537 | 73 | 0.0 | 0.0 | 0.00 | 0.05 | 0.05 | 95 | 1011.1 | |
| 20260904022517 | 73 | 0.0 | 0.0 | 0.00 | 0.05 | 0.05 | 95 | 1011.1 | |
| 20260904021520 | 73 | 0.0 | 0.0 | 0.00 | 0.05 | 0.05 | 95 | 1011.2 | |
| 20260904020538 | 73 | 0.0 | 0.0 | 0.00 | 0.05 | 0.05 | 95 | 1011.3 | |
| 20260904015516 | 73 | 0.0 | 0.0 | 0.00 | 0.05 | 0.05 | 94 | 1011.4 | |
| 20260904014516 | 73 | 0.0 | 0.0 | 0.00 | 0.05 | 0.05 | 94 | 1011.4 | |
| 20260904013517 | 73 | 0.0 | 0.0 | 0.00 | 0.05 | 0.05 | 93 | 1011.4 | |
| 20260904012536 | 73 | 0.0 | 0.0 | 0.00 | 0.05 | 0.05 | 93 | 1011.3 | |
| 20260904011517 | 74 | 0.0 | 0.0 | 0.00 | 0.05 | 0.05 | 93 | 1011.4 | |
| 20260904010521 | 74 | 0.0 | 0.0 | 0.00 | 0.05 | 0.05 | 92 | 1011.3 | |
| 20260904005527 | 74 | 0.0 | 0.0 | 0.00 | 0.05 | 0.05 | 92 | 1011.4 | |
| 20260904004516 | 74 | 0.0 | 0.0 | 0.00 | 0.05 | 0.05 | 91 | 1011.5 | |
| 20260904003537 | 74 | 0.0 | 0.0 | 0.00 | 0.05 | 0.05 | 91 | 1011.3 | |
| 20260904002521 | 75 | 0.0 | 0.0 | 0.00 | 0.05 | 0.05 | 89 | 1011.1 | |
| 20260904001527 | 75 | 0.0 | 0.0 | 0.00 | 0.05 | 0.05 | 89 | 1010.7 | |
| 20260904000537 | 75 | 0.0 | 0.0 | 0.00 | 0.05 | 0.05 | 88 | 1010.7 | |
| 20260903235516 | 76 | 0.0 | 0.0 | 0.00 | 0.05 | 0.05 | 87 | 1010.5 | |
| 20260903234516 | 76 | 0.0 | 0.0 | 0.00 | 0.05 | 0.05 | 86 | 1010.6 | |
| 20260903233515 | 77 | 0.0 | 0.0 | 0.00 | 0.05 | 0.05 | 85 | 1010.6 | |
| 20260903232516 | 78 | 0.0 | 0.0 | 0.00 | 0.05 | 0.05 | 83 | 1010.6 | |
| 20260903231536 | 79 | 0.0 | 0.0 | 0.00 | 0.05 | 0.05 | 82 | 1010.5 | |
| 20260903230520 | 80 | 0.0 | 0.0 | 0.00 | 0.05 | 0.05 | 80 | 1010.4 | |
| 20260903225517 | 80 | 0.0 | 0.0 | 0.00 | 0.05 | 0.05 | 79 | 1010.6 | |
| 20260903224517 | 81 | 0.0 | 1.0 | 0.00 | 0.05 | 0.05 | 77 | 1010.4 | |
| 20260903223606 | 82 | 0.0 | 0.0 | 0.00 | 0.05 | 0.05 | 76 | 1010.4 | |
| 20260903222517 | 83 | 0.0 | 1.0 | 0.00 | 0.05 | 0.05 | 74 | 1010.5 | |
| 20260903221516 | 82 | 0.0 | 1.0 | 0.00 | 0.05 | 0.05 | 74 | 1010.5 | |
| 20260903220519 | 82 | 0.0 | 1.0 | 0.00 | 0.05 | 0.05 | 74 | 1010.7 | |
| 20260903215518 | 83 | 0.0 | 1.0 | 0.00 | 0.05 | 0.05 | 74 | 1010.7 | |
| 20260903214518 | 83 | 0.0 | 1.0 | 0.00 | 0.05 | 0.05 | 73 | 1010.8 | |
| 20260903213518 | 81 | 0.0 | 0.0 | 0.00 | 0.05 | 0.05 | 77 | 1010.7 | |
| 20260903212524 | 81 | 0.0 | 4.0 | 0.00 | 0.05 | 0.05 | 77 | 1010.7 | |
| 20260903211518 | 81 | 0.0 | 2.0 | 0.00 | 0.05 | 0.05 | 76 | 1010.6 | |
| 20260903210540 | 81 | 225 | 1.0 | 4.0 | 0.00 | 0.05 | 0.05 | 76 | 1010.5 |
| 20260903205520 | 81 | 0.0 | 2.0 | 0.00 | 0.05 | 0.05 | 76 | 1010.5 | |
| 20260903204519 | 81 | 0.0 | 3.0 | 0.00 | 0.05 | 0.05 | 75 | 1010.6 | |
| 20260903203520 | 81 | 270 | 1.0 | 3.0 | 0.00 | 0.05 | 0.05 | 75 | 1010.6 |
| 20260903202517 | 82 | 225 | 1.0 | 4.0 | 0.00 | 0.05 | 0.05 | 74 | 1010.7 |
| 20260903201527 | 82 | 0.0 | 2.0 | 0.00 | 0.05 | 0.05 | 74 | 1010.7 | |
| 20260903200541 | 82 | 0.0 | 2.0 | 0.00 | 0.05 | 0.05 | 72 | 1010.6 | |
| 20260903195523 | 83 | 0.0 | 3.0 | 0.00 | 0.05 | 0.05 | 71 | 1010.8 | |
| 20260903194537 | 84 | 0.0 | 1.0 | 0.00 | 0.05 | 0.05 | 70 | 1010.9 | |
| 20260903193520 | 84 | 248 | 1.0 | 4.0 | 0.00 | 0.05 | 0.05 | 69 | 1011.0 |
| 20260903192557 | 84 | 0.0 | 3.0 | 0.00 | 0.05 | 0.05 | 71 | 1011.1 | |
| 20260903191517 | 82 | 0.0 | 4.0 | 0.00 | 0.05 | 0.05 | 73 | 1011.2 | |
| 20260903190526 | 82 | 0.0 | 4.0 | 0.00 | 0.05 | 0.05 | 73 | 1011.3 | |
| 20260903185520 | 82 | 0.0 | 3.0 | 0.00 | 0.05 | 0.05 | 73 | 1011.3 | |
| 20260903184519 | 82 | 270 | 1.0 | 3.0 | 0.00 | 0.05 | 0.05 | 74 | 1011.5 |
| 20260903183518 | 82 | 0.0 | 1.0 | 0.00 | 0.05 | 0.05 | 73 | 1011.5 | |
| 20260903182517 | 82 | 0.0 | 1.0 | 0.00 | 0.05 | 0.05 | 75 | 1011.7 | |
| 20260903181518 | 81 | 0.0 | 1.0 | 0.00 | 0.05 | 0.05 | 75 | 1011.7 | |
| 20260903180518 | 80 | 0.0 | 1.0 | 0.00 | 0.05 | 0.05 | 75 | 1011.7 | |
| 20260903175537 | 80 | 0.0 | 0.0 | 0.00 | 0.05 | 0.05 | 78 | 1012.1 | |
| 20260903174558 | 79 | 0.0 | 0.0 | 0.00 | 0.05 | 0.05 | 77 | 1012.1 | |
| 20260903173519 | 80 | 0.0 | 0.0 | 0.00 | 0.05 | 0.05 | 77 | 1012.2 | |
| 20260903172517 | 79 | 0.0 | 1.0 | 0.00 | 0.05 | 0.05 | 77 | 1012.2 |